IRNSS-1I (43286 NORAD) Tracking and Keplerian Element Data

This shows tracking and keplerian element data for the satellite.

Feedback or suggestion? Click here.




ElementValue
Catalog43286
NameIRNSS-1I
Epoch Orbit39
Epoch Day129.55611968
Epoch Year2018
RAAN122.617
Inclination28.573
Eccentricity0.0020034
Argument of Perigee188.8475
Mean Anonmoly171.1272
Mean Motion1.00275409
Decay Rate1.38E-06
L11 43286U 18035A 18129.55611968 .00000138 00000-0 00000+0 0 9993
L22 43286 28.5730 122.6170 0020034 188.8475 171.1272 1.00275409 390

Live tracking and technical data element details for IRNSS-1I (NORAD 43286). IRNSS-1I can be tracked NOW for your location showing map with azimuth and elevation plus other details from your city location.

Track the satellite on the map from your city or location and see movement details for azimuth, elevation, latitude, longitude, range, height, and movement on the map or in text.







IsCatalogInMostPopularTable: catalog: 43286, numindb: 101
Update: records affected: 1



GetName: 43286 IRNSS-1I

Hit Count: updated at: Thu, 19 Jul 2018 21:08:28 GMT